Hourly Data Report for July 03, 2021

SWAN RIVER RCS
MANITOBA
Current Station Operator: ECCC - MSC

52°06'53.900" N
101°13'58.500" W
334.80 m
504K80K
71443
WEQ

Download Data

Hourly Data (July 2021)
Hourly Data Report for July 3, 2021
TIME
LST
Temp Definition
°C
Dew Point Definition
°C
Rel Hum Definition
%
Precip. Amount Definition
mm

Wind Dir Definition
10's deg

Wind Spd Definition
km/h
Visibility Definition
km
Stn Press Definition
kPa
Hmdx Definition


Wind Chill Definition


Weather Definition


00:00 23.7 15.2 59 0.0 16 10   96.97 28   LegendNANA
01:00 22.0 14.2 61 0.0 19 7   96.92 25   LegendNANA
02:00 22.7 14.5 60 0.0 23 8   96.90 26   LegendNANA
03:00 19.3 14.2 72 0.0 26 6   96.82     LegendNANA
04:00 19.3 13.2 67 0.0 25 6   96.75     LegendNANA
05:00 20.4 13.6 65 0.0 26 10   96.74     LegendNANA
06:00 20.9 14.4 67 0.0 28 6   96.73 25   LegendNANA
07:00 23.3 14.9 59 0.0 28 6   96.71 27   LegendNANA
08:00 25.5 14.3 50 0.0 22 11   96.66 29   LegendNANA
09:00 27.5 15.4 48 0.0 21 9   96.61 32   LegendNANA
10:00 29.7 14.1 39 0.0 22 15   96.57 33   LegendNANA
11:00 31.5 15.0 37 0.0 21 11   96.52 35   LegendNANA
12:00 33.1 15.0 34 0.0 21 14   96.46 37   LegendNANA
13:00 34.8 15.5 32 0.0 22 15   96.39 39   LegendNANA
14:00 35.5 15.6 31 0.0 22 16   96.35 40   LegendNANA
15:00 35.2 15.3 31 0.0 25 18   96.37 39   LegendNANA
16:00 35.1 15.7 31 0.0 24 14   96.33 40   LegendNANA
17:00 35.1 16.3 33 0.0 25 14   96.30 40   LegendNANA
18:00 34.9 16.2 33 0.0 21 12   96.27 40   LegendNANA
19:00 33.6 17.5 38 0.0 22 12   96.24 39   LegendNANA
20:00 29.6 19.9 56 0.0 21 10   96.23 37   LegendNANA
21:00 24.1 15.2 58 0.0 32 36   96.57 28   LegendNANA
22:00 19.0 16.2 84 2.9 1 30   96.40     LegendNANA
23:00 20.9 17.7 82 0.4 29 11   96.52 27   LegendNANA

Notes on Data Quality.

Legend

  • E = Estimated
  • M = Missing
  • NA = Not Available*
  • [empty] = Indicates an unobserved value
Date modified: